Index of /20260509/WXO-DD/model_rdps/10km/12/050
Name Last modified Size Description
Parent Directory -
20260509T12Z_MSC_RDPS_AbsoluteVorticity_IsbL-0250_RLatLon0.09_PT050H.grib2 2026-05-09 14:55 612K
20260509T12Z_MSC_RDPS_AbsoluteVorticity_IsbL-0500_RLatLon0.09_PT050H.grib2 2026-05-09 14:55 577K
20260509T12Z_MSC_RDPS_AbsoluteVorticity_IsbL-0700_RLatLon0.09_PT050H.grib2 2026-05-09 14:55 621K
20260509T12Z_MSC_RDPS_AbsoluteVorticity_IsbL-0850_RLatLon0.09_PT050H.grib2 2026-05-09 14:55 789K
20260509T12Z_MSC_RDPS_AirTemp_AGL-120m_RLatLon0.09_PT050H.grib2 2026-05-09 14:55 386K
20260509T12Z_MSC_RDPS_AirTemp_AGL-2m_RLatLon0.09_PT050H.grib2 2026-05-09 14:55 632K
20260509T12Z_MSC_RDPS_AirTemp_AGL-40m_RLatLon0.09_PT050H.grib2 2026-05-09 14:55 399K
20260509T12Z_MSC_RDPS_AirTemp_AGL-80m_RLatLon0.09_PT050H.grib2 2026-05-09 14:55 393K
20260509T12Z_MSC_RDPS_AirTemp_IsbL-0001_RLatLon0.09_PT050H.grib2 2026-05-09 14:55 245K
20260509T12Z_MSC_RDPS_AirTemp_IsbL-0005_RLatLon0.09_PT050H.grib2 2026-05-09 14:55 293K
20260509T12Z_MSC_RDPS_AirTemp_IsbL-0010_RLatLon0.09_PT050H.grib2 2026-05-09 14:55 360K
20260509T12Z_MSC_RDPS_AirTemp_IsbL-0020_RLatLon0.09_PT050H.grib2 2026-05-09 14:55 418K
20260509T12Z_MSC_RDPS_AirTemp_IsbL-0030_RLatLon0.09_PT050H.grib2 2026-05-09 14:55 343K
20260509T12Z_MSC_RDPS_AirTemp_IsbL-0050_RLatLon0.09_PT050H.grib2 2026-05-09 14:55 311K
20260509T12Z_MSC_RDPS_AirTemp_IsbL-0100_RLatLon0.09_PT050H.grib2 2026-05-09 14:55 422K
20260509T12Z_MSC_RDPS_AirTemp_IsbL-0150_RLatLon0.09_PT050H.grib2 2026-05-09 14:55 402K
20260509T12Z_MSC_RDPS_AirTemp_IsbL-0175_RLatLon0.09_PT050H.grib2 2026-05-09 14:55 394K
20260509T12Z_MSC_RDPS_AirTemp_IsbL-0200_RLatLon0.09_PT050H.grib2 2026-05-09 14:55 403K
20260509T12Z_MSC_RDPS_AirTemp_IsbL-0225_RLatLon0.09_PT050H.grib2 2026-05-09 14:55 410K
20260509T12Z_MSC_RDPS_AirTemp_IsbL-0250_RLatLon0.09_PT050H.grib2 2026-05-09 14:55 423K
20260509T12Z_MSC_RDPS_AirTemp_IsbL-0275_RLatLon0.09_PT050H.grib2 2026-05-09 14:55 405K
20260509T12Z_MSC_RDPS_AirTemp_IsbL-0300_RLatLon0.09_PT050H.grib2 2026-05-09 14:55 410K
20260509T12Z_MSC_RDPS_AirTemp_IsbL-0350_RLatLon0.09_PT050H.grib2 2026-05-09 14:55 422K
20260509T12Z_MSC_RDPS_AirTemp_IsbL-0400_RLatLon0.09_PT050H.grib2 2026-05-09 14:55 428K
20260509T12Z_MSC_RDPS_AirTemp_IsbL-0450_RLatLon0.09_PT050H.grib2 2026-05-09 14:55 437K
20260509T12Z_MSC_RDPS_AirTemp_IsbL-0500_RLatLon0.09_PT050H.grib2 2026-05-09 14:55 447K
20260509T12Z_MSC_RDPS_AirTemp_IsbL-0550_RLatLon0.09_PT050H.grib2 2026-05-09 14:55 464K
20260509T12Z_MSC_RDPS_AirTemp_IsbL-0600_RLatLon0.09_PT050H.grib2 2026-05-09 14:55 482K
20260509T12Z_MSC_RDPS_AirTemp_IsbL-0650_RLatLon0.09_PT050H.grib2 2026-05-09 14:55 496K
20260509T12Z_MSC_RDPS_AirTemp_IsbL-0700_RLatLon0.09_PT050H.grib2 2026-05-09 14:55 520K
20260509T12Z_MSC_RDPS_AirTemp_IsbL-0750_RLatLon0.09_PT050H.grib2 2026-05-09 14:55 564K
20260509T12Z_MSC_RDPS_AirTemp_IsbL-0800_RLatLon0.09_PT050H.grib2 2026-05-09 14:55 625K
20260509T12Z_MSC_RDPS_AirTemp_IsbL-0850_RLatLon0.09_PT050H.grib2 2026-05-09 14:55 635K
20260509T12Z_MSC_RDPS_AirTemp_IsbL-0875_RLatLon0.09_PT050H.grib2 2026-05-09 14:55 652K
20260509T12Z_MSC_RDPS_AirTemp_IsbL-0900_RLatLon0.09_PT050H.grib2 2026-05-09 14:55 662K
20260509T12Z_MSC_RDPS_AirTemp_IsbL-0925_RLatLon0.09_PT050H.grib2 2026-05-09 14:55 532K
20260509T12Z_MSC_RDPS_AirTemp_IsbL-0950_RLatLon0.09_PT050H.grib2 2026-05-09 14:55 538K
20260509T12Z_MSC_RDPS_AirTemp_IsbL-0970_RLatLon0.09_PT050H.grib2 2026-05-09 14:55 536K
20260509T12Z_MSC_RDPS_AirTemp_IsbL-0985_RLatLon0.09_PT050H.grib2 2026-05-09 14:55 656K
20260509T12Z_MSC_RDPS_AirTemp_IsbL-1000_RLatLon0.09_PT050H.grib2 2026-05-09 14:55 511K
20260509T12Z_MSC_RDPS_AirTemp_IsbL-1015_RLatLon0.09_PT050H.grib2 2026-05-09 14:55 511K
20260509T12Z_MSC_RDPS_Albedo_Sfc_RLatLon0.09_PT050H.grib2 2026-05-09 14:55 157K
20260509T12Z_MSC_RDPS_CAPE_Sfc_RLatLon0.09_PT050H.grib2 2026-05-09 14:55 1.8M
20260509T12Z_MSC_RDPS_CIN_Sfc_RLatLon0.09_PT050H.grib2 2026-05-09 14:55 1.3M
20260509T12Z_MSC_RDPS_CloudWater_EAtm_RLatLon0.09_PT050H.grib2 2026-05-09 14:55 228K
20260509T12Z_MSC_RDPS_ConvectivePrecip-Accum_Sfc_RLatLon0.09_PT050H.grib2 2026-05-09 14:55 1.2M
20260509T12Z_MSC_RDPS_DewPointDepression_AGL-2m_RLatLon0.09_PT050H.grib2 2026-05-09 14:55 415K
20260509T12Z_MSC_RDPS_DewPointDepression_IsbL-0001_RLatLon0.09_PT050H.grib2 2026-05-09 14:55 193
20260509T12Z_MSC_RDPS_DewPointDepression_IsbL-0005_RLatLon0.09_PT050H.grib2 2026-05-09 14:55 193
20260509T12Z_MSC_RDPS_DewPointDepression_IsbL-0010_RLatLon0.09_PT050H.grib2 2026-05-09 14:55 193
20260509T12Z_MSC_RDPS_DewPointDepression_IsbL-0020_RLatLon0.09_PT050H.grib2 2026-05-09 14:55 193
20260509T12Z_MSC_RDPS_DewPointDepression_IsbL-0030_RLatLon0.09_PT050H.grib2 2026-05-09 14:55 193
20260509T12Z_MSC_RDPS_DewPointDepression_IsbL-0050_RLatLon0.09_PT050H.grib2 2026-05-09 14:55 107K
20260509T12Z_MSC_RDPS_DewPointDepression_IsbL-0100_RLatLon0.09_PT050H.grib2 2026-05-09 14:55 113K
20260509T12Z_MSC_RDPS_DewPointDepression_IsbL-0150_RLatLon0.09_PT050H.grib2 2026-05-09 14:55 144K
20260509T12Z_MSC_RDPS_DewPointDepression_IsbL-0175_RLatLon0.09_PT050H.grib2 2026-05-09 14:55 163K
20260509T12Z_MSC_RDPS_DewPointDepression_IsbL-0200_RLatLon0.09_PT050H.grib2 2026-05-09 14:55 209K
20260509T12Z_MSC_RDPS_DewPointDepression_IsbL-0225_RLatLon0.09_PT050H.grib2 2026-05-09 14:55 257K
20260509T12Z_MSC_RDPS_DewPointDepression_IsbL-0250_RLatLon0.09_PT050H.grib2 2026-05-09 14:55 302K
20260509T12Z_MSC_RDPS_DewPointDepression_IsbL-0275_RLatLon0.09_PT050H.grib2 2026-05-09 14:55 308K
20260509T12Z_MSC_RDPS_DewPointDepression_IsbL-0300_RLatLon0.09_PT050H.grib2 2026-05-09 14:55 325K
20260509T12Z_MSC_RDPS_DewPointDepression_IsbL-0350_RLatLon0.09_PT050H.grib2 2026-05-09 14:55 333K
20260509T12Z_MSC_RDPS_DewPointDepression_IsbL-0400_RLatLon0.09_PT050H.grib2 2026-05-09 14:55 346K
20260509T12Z_MSC_RDPS_DewPointDepression_IsbL-0450_RLatLon0.09_PT050H.grib2 2026-05-09 14:55 352K
20260509T12Z_MSC_RDPS_DewPointDepression_IsbL-0500_RLatLon0.09_PT050H.grib2 2026-05-09 14:55 353K
20260509T12Z_MSC_RDPS_DewPointDepression_IsbL-0550_RLatLon0.09_PT050H.grib2 2026-05-09 14:55 363K
20260509T12Z_MSC_RDPS_DewPointDepression_IsbL-0600_RLatLon0.09_PT050H.grib2 2026-05-09 14:55 376K
20260509T12Z_MSC_RDPS_DewPointDepression_IsbL-0650_RLatLon0.09_PT050H.grib2 2026-05-09 14:55 383K
20260509T12Z_MSC_RDPS_DewPointDepression_IsbL-0700_RLatLon0.09_PT050H.grib2 2026-05-09 14:55 391K
20260509T12Z_MSC_RDPS_DewPointDepression_IsbL-0750_RLatLon0.09_PT050H.grib2 2026-05-09 14:55 409K
20260509T12Z_MSC_RDPS_DewPointDepression_IsbL-0800_RLatLon0.09_PT050H.grib2 2026-05-09 14:55 455K
20260509T12Z_MSC_RDPS_DewPointDepression_IsbL-0850_RLatLon0.09_PT050H.grib2 2026-05-09 14:55 471K
20260509T12Z_MSC_RDPS_DewPointDepression_IsbL-0875_RLatLon0.09_PT050H.grib2 2026-05-09 14:55 465K
20260509T12Z_MSC_RDPS_DewPointDepression_IsbL-0900_RLatLon0.09_PT050H.grib2 2026-05-09 14:55 453K
20260509T12Z_MSC_RDPS_DewPointDepression_IsbL-0925_RLatLon0.09_PT050H.grib2 2026-05-09 14:55 442K
20260509T12Z_MSC_RDPS_DewPointDepression_IsbL-0950_RLatLon0.09_PT050H.grib2 2026-05-09 14:55 443K
20260509T12Z_MSC_RDPS_DewPointDepression_IsbL-0970_RLatLon0.09_PT050H.grib2 2026-05-09 14:55 445K
20260509T12Z_MSC_RDPS_DewPointDepression_IsbL-0985_RLatLon0.09_PT050H.grib2 2026-05-09 14:55 441K
20260509T12Z_MSC_RDPS_DewPointDepression_IsbL-1000_RLatLon0.09_PT050H.grib2 2026-05-09 14:55 435K
20260509T12Z_MSC_RDPS_DewPointDepression_IsbL-1015_RLatLon0.09_PT050H.grib2 2026-05-09 14:55 424K
20260509T12Z_MSC_RDPS_DewPoint_AGL-2m_RLatLon0.09_PT050H.grib2 2026-05-09 14:55 398K
20260509T12Z_MSC_RDPS_DownwardLongwaveRadiationFlux-Accum_Sfc_RLatLon0.09_PT050H.grib2 2026-05-09 14:55 375K
20260509T12Z_MSC_RDPS_DownwardShortwaveRadiationFlux-Accum_NTAtm_RLatLon0.09_PT050H.grib2 2026-05-09 14:55 123K
20260509T12Z_MSC_RDPS_DownwardShortwaveRadiationFlux-Accum_Sfc_RLatLon0.09_PT050H.grib2 2026-05-09 14:55 581K
20260509T12Z_MSC_RDPS_FreezingRain-Accum1h_Sfc_RLatLon0.09_PT050H.grib2 2026-05-09 14:55 34K
20260509T12Z_MSC_RDPS_FreezingRain-Accum_Sfc_RLatLon0.09_PT050H.grib2 2026-05-09 14:55 156K
20260509T12Z_MSC_RDPS_GeopotentialHeight_IsbL-0001_RLatLon0.09_PT050H.grib2 2026-05-09 14:55 249K
20260509T12Z_MSC_RDPS_GeopotentialHeight_IsbL-0005_RLatLon0.09_PT050H.grib2 2026-05-09 14:55 343K
20260509T12Z_MSC_RDPS_GeopotentialHeight_IsbL-0010_RLatLon0.09_PT050H.grib2 2026-05-09 14:55 312K
20260509T12Z_MSC_RDPS_GeopotentialHeight_IsbL-0020_RLatLon0.09_PT050H.grib2 2026-05-09 14:55 311K
20260509T12Z_MSC_RDPS_GeopotentialHeight_IsbL-0030_RLatLon0.09_PT050H.grib2 2026-05-09 14:55 314K
20260509T12Z_MSC_RDPS_GeopotentialHeight_IsbL-0050_RLatLon0.09_PT050H.grib2 2026-05-09 14:55 313K
20260509T12Z_MSC_RDPS_GeopotentialHeight_IsbL-0100_RLatLon0.09_PT050H.grib2 2026-05-09 14:55 285K
20260509T12Z_MSC_RDPS_GeopotentialHeight_IsbL-0150_RLatLon0.09_PT050H.grib2 2026-05-09 14:55 226K
20260509T12Z_MSC_RDPS_GeopotentialHeight_IsbL-0175_RLatLon0.09_PT050H.grib2 2026-05-09 14:55 228K
20260509T12Z_MSC_RDPS_GeopotentialHeight_IsbL-0200_RLatLon0.09_PT050H.grib2 2026-05-09 14:55 231K
20260509T12Z_MSC_RDPS_GeopotentialHeight_IsbL-0225_RLatLon0.09_PT050H.grib2 2026-05-09 14:55 233K
20260509T12Z_MSC_RDPS_GeopotentialHeight_IsbL-0250_RLatLon0.09_PT050H.grib2 2026-05-09 14:55 234K
20260509T12Z_MSC_RDPS_GeopotentialHeight_IsbL-0275_RLatLon0.09_PT050H.grib2 2026-05-09 14:55 234K
20260509T12Z_MSC_RDPS_GeopotentialHeight_IsbL-0300_RLatLon0.09_PT050H.grib2 2026-05-09 14:55 235K
20260509T12Z_MSC_RDPS_GeopotentialHeight_IsbL-0350_RLatLon0.09_PT050H.grib2 2026-05-09 14:55 231K
20260509T12Z_MSC_RDPS_GeopotentialHeight_IsbL-0400_RLatLon0.09_PT050H.grib2 2026-05-09 14:55 301K
20260509T12Z_MSC_RDPS_GeopotentialHeight_IsbL-0450_RLatLon0.09_PT050H.grib2 2026-05-09 14:55 296K
20260509T12Z_MSC_RDPS_GeopotentialHeight_IsbL-0500_RLatLon0.09_PT050H.grib2 2026-05-09 14:55 291K
20260509T12Z_MSC_RDPS_GeopotentialHeight_IsbL-0550_RLatLon0.09_PT050H.grib2 2026-05-09 14:55 286K
20260509T12Z_MSC_RDPS_GeopotentialHeight_IsbL-0600_RLatLon0.09_PT050H.grib2 2026-05-09 14:55 282K
20260509T12Z_MSC_RDPS_GeopotentialHeight_IsbL-0650_RLatLon0.09_PT050H.grib2 2026-05-09 14:55 253K
20260509T12Z_MSC_RDPS_GeopotentialHeight_IsbL-0700_RLatLon0.09_PT050H.grib2 2026-05-09 14:55 252K
20260509T12Z_MSC_RDPS_GeopotentialHeight_IsbL-0750_RLatLon0.09_PT050H.grib2 2026-05-09 14:55 255K
20260509T12Z_MSC_RDPS_GeopotentialHeight_IsbL-0800_RLatLon0.09_PT050H.grib2 2026-05-09 14:55 347K
20260509T12Z_MSC_RDPS_GeopotentialHeight_IsbL-0850_RLatLon0.09_PT050H.grib2 2026-05-09 14:55 357K
20260509T12Z_MSC_RDPS_GeopotentialHeight_IsbL-0875_RLatLon0.09_PT050H.grib2 2026-05-09 14:55 358K
20260509T12Z_MSC_RDPS_GeopotentialHeight_IsbL-0900_RLatLon0.09_PT050H.grib2 2026-05-09 14:55 363K
20260509T12Z_MSC_RDPS_GeopotentialHeight_IsbL-0925_RLatLon0.09_PT050H.grib2 2026-05-09 14:55 366K
20260509T12Z_MSC_RDPS_GeopotentialHeight_IsbL-0950_RLatLon0.09_PT050H.grib2 2026-05-09 14:55 368K
20260509T12Z_MSC_RDPS_GeopotentialHeight_IsbL-0970_RLatLon0.09_PT050H.grib2 2026-05-09 14:55 375K
20260509T12Z_MSC_RDPS_GeopotentialHeight_IsbL-0985_RLatLon0.09_PT050H.grib2 2026-05-09 14:55 385K
20260509T12Z_MSC_RDPS_GeopotentialHeight_IsbL-1000_RLatLon0.09_PT050H.grib2 2026-05-09 14:55 399K
20260509T12Z_MSC_RDPS_GeopotentialHeight_IsbL-1015_RLatLon0.09_PT050H.grib2 2026-05-09 14:55 417K
20260509T12Z_MSC_RDPS_HighLowPressure_MSL_RLatLon0.09_PT050H.json 2026-05-09 14:46 17K
20260509T12Z_MSC_RDPS_Humidex_Sfc_RLatLon0.09_PT050H.grib2 2026-05-09 14:55 2.4M
20260509T12Z_MSC_RDPS_IcePellets-Accum1h_Sfc_RLatLon0.09_PT050H.grib2 2026-05-09 14:55 13K
20260509T12Z_MSC_RDPS_IcePellets-Accum_Sfc_RLatLon0.09_PT050H.grib2 2026-05-09 14:55 36K
20260509T12Z_MSC_RDPS_KIndex_Sfc_RLatLon0.09_PT050H.grib2 2026-05-09 14:55 2.5M
20260509T12Z_MSC_RDPS_LatentHeatNetFlux_Sfc_RLatLon0.09_PT050H.grib2 2026-05-09 14:55 378K
20260509T12Z_MSC_RDPS_LiftedIndex-MU-VT_IsbL-0500_RLatLon0.09_PT050H.grib2 2026-05-09 14:55 2.4M
20260509T12Z_MSC_RDPS_NetLongwaveRadiationFlux-Accum_Sfc_RLatLon0.09_PT050H.grib2 2026-05-09 14:55 554K
20260509T12Z_MSC_RDPS_NetShortwaveRadiationFlux-Accum_Sfc_RLatLon0.09_PT050H.grib2 2026-05-09 14:55 579K
20260509T12Z_MSC_RDPS_PlanetaryBoundaryLayerHeight_Sfc_RLatLon0.09_PT050H.grib2 2026-05-09 14:55 1.2M
20260509T12Z_MSC_RDPS_Precip-Accum1h_Sfc_RLatLon0.09_PT050H.grib2 2026-05-09 14:55 1.3M
20260509T12Z_MSC_RDPS_Precip-Accum_Sfc_RLatLon0.09_PT050H.grib2 2026-05-09 14:55 2.0M
20260509T12Z_MSC_RDPS_PrecipRate_Sfc_RLatLon0.09_PT050H.grib2 2026-05-09 14:55 191K
20260509T12Z_MSC_RDPS_PrecipType-Instant_Sfc_RLatLon0.09_PT050H.grib2 2026-05-09 14:55 636K
20260509T12Z_MSC_RDPS_Pressure-Trend3h_Sfc_RLatLon0.09_PT050H.grib2 2026-05-09 14:55 1.2M
20260509T12Z_MSC_RDPS_Pressure_MSL_RLatLon0.09_PT050H.grib2 2026-05-09 14:55 327K
20260509T12Z_MSC_RDPS_Pressure_PVU-1.5_RLatLon0.09_PT050H.grib2 2026-05-09 14:55 2.3M
20260509T12Z_MSC_RDPS_Pressure_PVU-1_RLatLon0.09_PT050H.grib2 2026-05-09 14:55 2.4M
20260509T12Z_MSC_RDPS_Pressure_PVU-2_RLatLon0.09_PT050H.grib2 2026-05-09 14:55 2.4M
20260509T12Z_MSC_RDPS_Pressure_Sfc_RLatLon0.09_PT050H.grib2 2026-05-09 14:55 501K
20260509T12Z_MSC_RDPS_RadiativeTemp_Sfc_RLatLon0.09_PT050H.grib2 2026-05-09 14:55 399K
20260509T12Z_MSC_RDPS_Rain-Accum1h_Sfc_RLatLon0.09_PT050H.grib2 2026-05-09 14:55 697K
20260509T12Z_MSC_RDPS_Rain-Accum_Sfc_RLatLon0.09_PT050H.grib2 2026-05-09 14:55 1.8M
20260509T12Z_MSC_RDPS_RelativeHumidity_AGL-2m_RLatLon0.09_PT050H.grib2 2026-05-09 14:55 1.0M
20260509T12Z_MSC_RDPS_RelativeHumidity_IsbL-0010_RLatLon0.09_PT050H.grib2 2026-05-09 14:55 586K
20260509T12Z_MSC_RDPS_RelativeHumidity_IsbL-0020_RLatLon0.09_PT050H.grib2 2026-05-09 14:55 638K
20260509T12Z_MSC_RDPS_RelativeHumidity_IsbL-0030_RLatLon0.09_PT050H.grib2 2026-05-09 14:55 624K
20260509T12Z_MSC_RDPS_RelativeHumidity_IsbL-0050_RLatLon0.09_PT050H.grib2 2026-05-09 14:55 353K
20260509T12Z_MSC_RDPS_RelativeHumidity_IsbL-0100_RLatLon0.09_PT050H.grib2 2026-05-09 14:55 276K
20260509T12Z_MSC_RDPS_RelativeHumidity_IsbL-0150_RLatLon0.09_PT050H.grib2 2026-05-09 14:55 412K
20260509T12Z_MSC_RDPS_RelativeHumidity_IsbL-0175_RLatLon0.09_PT050H.grib2 2026-05-09 14:55 464K
20260509T12Z_MSC_RDPS_RelativeHumidity_IsbL-0200_RLatLon0.09_PT050H.grib2 2026-05-09 14:55 533K
20260509T12Z_MSC_RDPS_RelativeHumidity_IsbL-0225_RLatLon0.09_PT050H.grib2 2026-05-09 14:55 614K
20260509T12Z_MSC_RDPS_RelativeHumidity_IsbL-0250_RLatLon0.09_PT050H.grib2 2026-05-09 14:55 696K
20260509T12Z_MSC_RDPS_RelativeHumidity_IsbL-0275_RLatLon0.09_PT050H.grib2 2026-05-09 14:55 724K
20260509T12Z_MSC_RDPS_RelativeHumidity_IsbL-0300_RLatLon0.09_PT050H.grib2 2026-05-09 14:55 767K
20260509T12Z_MSC_RDPS_RelativeHumidity_IsbL-0350_RLatLon0.09_PT050H.grib2 2026-05-09 14:55 784K
20260509T12Z_MSC_RDPS_RelativeHumidity_IsbL-0400_RLatLon0.09_PT050H.grib2 2026-05-09 14:55 801K
20260509T12Z_MSC_RDPS_RelativeHumidity_IsbL-0450_RLatLon0.09_PT050H.grib2 2026-05-09 14:55 812K
20260509T12Z_MSC_RDPS_RelativeHumidity_IsbL-0500_RLatLon0.09_PT050H.grib2 2026-05-09 14:55 825K
20260509T12Z_MSC_RDPS_RelativeHumidity_IsbL-0550_RLatLon0.09_PT050H.grib2 2026-05-09 14:55 840K
20260509T12Z_MSC_RDPS_RelativeHumidity_IsbL-0600_RLatLon0.09_PT050H.grib2 2026-05-09 14:55 860K
20260509T12Z_MSC_RDPS_RelativeHumidity_IsbL-0650_RLatLon0.09_PT050H.grib2 2026-05-09 14:55 864K
20260509T12Z_MSC_RDPS_RelativeHumidity_IsbL-0700_RLatLon0.09_PT050H.grib2 2026-05-09 14:55 893K
20260509T12Z_MSC_RDPS_RelativeHumidity_IsbL-0750_RLatLon0.09_PT050H.grib2 2026-05-09 14:55 931K
20260509T12Z_MSC_RDPS_RelativeHumidity_IsbL-0800_RLatLon0.09_PT050H.grib2 2026-05-09 14:55 1.0M
20260509T12Z_MSC_RDPS_RelativeHumidity_IsbL-0850_RLatLon0.09_PT050H.grib2 2026-05-09 14:55 1.0M
20260509T12Z_MSC_RDPS_RelativeHumidity_IsbL-0875_RLatLon0.09_PT050H.grib2 2026-05-09 14:55 1.1M
20260509T12Z_MSC_RDPS_RelativeHumidity_IsbL-0900_RLatLon0.09_PT050H.grib2 2026-05-09 14:55 1.1M
20260509T12Z_MSC_RDPS_RelativeHumidity_IsbL-0925_RLatLon0.09_PT050H.grib2 2026-05-09 14:55 1.1M
20260509T12Z_MSC_RDPS_RelativeHumidity_IsbL-0950_RLatLon0.09_PT050H.grib2 2026-05-09 14:55 1.1M
20260509T12Z_MSC_RDPS_RelativeHumidity_IsbL-0970_RLatLon0.09_PT050H.grib2 2026-05-09 14:55 1.1M
20260509T12Z_MSC_RDPS_RelativeHumidity_IsbL-0985_RLatLon0.09_PT050H.grib2 2026-05-09 14:55 1.1M
20260509T12Z_MSC_RDPS_RelativeHumidity_IsbL-1000_RLatLon0.09_PT050H.grib2 2026-05-09 14:55 1.0M
20260509T12Z_MSC_RDPS_RelativeHumidity_IsbL-1015_RLatLon0.09_PT050H.grib2 2026-05-09 14:55 1.0M
20260509T12Z_MSC_RDPS_Runoff-Accum_Sfc_RLatLon0.09_PT050H.grib2 2026-05-09 14:55 43K
20260509T12Z_MSC_RDPS_SWEATIndex_Sfc_RLatLon0.09_PT050H.grib2 2026-05-09 14:55 2.5M
20260509T12Z_MSC_RDPS_SeeingIndex_EAtm_RLatLon0.09_PT050H.grib2 2026-05-09 14:55 1.1M
20260509T12Z_MSC_RDPS_SensibleHeatNetFlux_Sfc_RLatLon0.09_PT050H.grib2 2026-05-09 14:55 257K
20260509T12Z_MSC_RDPS_ShowalterIndex_IsbL-0500_RLatLon0.09_PT050H.grib2 2026-05-09 14:55 2.6M
20260509T12Z_MSC_RDPS_SkyTransparencyIndex_EAtm_RLatLon0.09_PT050H.grib2 2026-05-09 14:55 700K
20260509T12Z_MSC_RDPS_Snow-Accum1h_Sfc_RLatLon0.09_PT050H.grib2 2026-05-09 14:55 473K
20260509T12Z_MSC_RDPS_Snow-Accum_Sfc_RLatLon0.09_PT050H.grib2 2026-05-09 14:55 637K
20260509T12Z_MSC_RDPS_SnowDensity_Sfc_RLatLon0.09_PT050H.grib2 2026-05-09 14:55 169K
20260509T12Z_MSC_RDPS_SnowDepth_Sfc_RLatLon0.09_PT050H.grib2 2026-05-09 14:55 617K
20260509T12Z_MSC_RDPS_SoilTemp_DBS-0to10cm_RLatLon0.09_PT050H.grib2 2026-05-09 14:55 235K
20260509T12Z_MSC_RDPS_SoilTemp_Sfc_RLatLon0.09_PT050H.grib2 2026-05-09 14:55 279K
20260509T12Z_MSC_RDPS_SoilVolumetricIceContent_Sfc_RLatLon0.09_PT050H.grib2 2026-05-09 14:55 141K
20260509T12Z_MSC_RDPS_SoilVolumetricWaterContent_DBS-0to10cm_RLatLon0.09_PT050H.grib2 2026-05-09 14:55 294K
20260509T12Z_MSC_RDPS_SoilVolumetricWaterContent_DBS-0to1cm_RLatLon0.09_PT050H.grib2 2026-05-09 14:55 347K
20260509T12Z_MSC_RDPS_SpecificHumidity_AGL-120m_RLatLon0.09_PT050H.grib2 2026-05-09 14:55 511K
20260509T12Z_MSC_RDPS_SpecificHumidity_AGL-2m_RLatLon0.09_PT050H.grib2 2026-05-09 14:55 681K
20260509T12Z_MSC_RDPS_SpecificHumidity_AGL-40m_RLatLon0.09_PT050H.grib2 2026-05-09 14:55 517K
20260509T12Z_MSC_RDPS_SpecificHumidity_AGL-80m_RLatLon0.09_PT050H.grib2 2026-05-09 14:55 513K
20260509T12Z_MSC_RDPS_SpecificHumidity_IsbL-0001_RLatLon0.09_PT050H.grib2 2026-05-09 14:55 360K
20260509T12Z_MSC_RDPS_SpecificHumidity_IsbL-0005_RLatLon0.09_PT050H.grib2 2026-05-09 14:55 368K
20260509T12Z_MSC_RDPS_SpecificHumidity_IsbL-0010_RLatLon0.09_PT050H.grib2 2026-05-09 14:55 394K
20260509T12Z_MSC_RDPS_SpecificHumidity_IsbL-0020_RLatLon0.09_PT050H.grib2 2026-05-09 14:55 380K
20260509T12Z_MSC_RDPS_SpecificHumidity_IsbL-0030_RLatLon0.09_PT050H.grib2 2026-05-09 14:55 370K
20260509T12Z_MSC_RDPS_SpecificHumidity_IsbL-0050_RLatLon0.09_PT050H.grib2 2026-05-09 14:55 481K
20260509T12Z_MSC_RDPS_SpecificHumidity_IsbL-0100_RLatLon0.09_PT050H.grib2 2026-05-09 14:55 404K
20260509T12Z_MSC_RDPS_SpecificHumidity_IsbL-0150_RLatLon0.09_PT050H.grib2 2026-05-09 14:55 477K
20260509T12Z_MSC_RDPS_SpecificHumidity_IsbL-0175_RLatLon0.09_PT050H.grib2 2026-05-09 14:55 529K
20260509T12Z_MSC_RDPS_SpecificHumidity_IsbL-0200_RLatLon0.09_PT050H.grib2 2026-05-09 14:55 445K
20260509T12Z_MSC_RDPS_SpecificHumidity_IsbL-0225_RLatLon0.09_PT050H.grib2 2026-05-09 14:55 457K
20260509T12Z_MSC_RDPS_SpecificHumidity_IsbL-0250_RLatLon0.09_PT050H.grib2 2026-05-09 14:55 569K
20260509T12Z_MSC_RDPS_SpecificHumidity_IsbL-0275_RLatLon0.09_PT050H.grib2 2026-05-09 14:55 485K
20260509T12Z_MSC_RDPS_SpecificHumidity_IsbL-0300_RLatLon0.09_PT050H.grib2 2026-05-09 14:55 585K
20260509T12Z_MSC_RDPS_SpecificHumidity_IsbL-0350_RLatLon0.09_PT050H.grib2 2026-05-09 14:55 580K
20260509T12Z_MSC_RDPS_SpecificHumidity_IsbL-0400_RLatLon0.09_PT050H.grib2 2026-05-09 14:55 540K
20260509T12Z_MSC_RDPS_SpecificHumidity_IsbL-0450_RLatLon0.09_PT050H.grib2 2026-05-09 14:55 595K
20260509T12Z_MSC_RDPS_SpecificHumidity_IsbL-0500_RLatLon0.09_PT050H.grib2 2026-05-09 14:55 529K
20260509T12Z_MSC_RDPS_SpecificHumidity_IsbL-0550_RLatLon0.09_PT050H.grib2 2026-05-09 14:55 602K
20260509T12Z_MSC_RDPS_SpecificHumidity_IsbL-0600_RLatLon0.09_PT050H.grib2 2026-05-09 14:55 656K
20260509T12Z_MSC_RDPS_SpecificHumidity_IsbL-0650_RLatLon0.09_PT050H.grib2 2026-05-09 14:55 572K
20260509T12Z_MSC_RDPS_SpecificHumidity_IsbL-0700_RLatLon0.09_PT050H.grib2 2026-05-09 14:55 614K
20260509T12Z_MSC_RDPS_SpecificHumidity_IsbL-0750_RLatLon0.09_PT050H.grib2 2026-05-09 14:55 669K
20260509T12Z_MSC_RDPS_SpecificHumidity_IsbL-0800_RLatLon0.09_PT050H.grib2 2026-05-09 14:55 753K
20260509T12Z_MSC_RDPS_SpecificHumidity_IsbL-0850_RLatLon0.09_PT050H.grib2 2026-05-09 14:55 826K
20260509T12Z_MSC_RDPS_SpecificHumidity_IsbL-0875_RLatLon0.09_PT050H.grib2 2026-05-09 14:55 841K
20260509T12Z_MSC_RDPS_SpecificHumidity_IsbL-0900_RLatLon0.09_PT050H.grib2 2026-05-09 14:55 849K
20260509T12Z_MSC_RDPS_SpecificHumidity_IsbL-0925_RLatLon0.09_PT050H.grib2 2026-05-09 14:55 853K
20260509T12Z_MSC_RDPS_SpecificHumidity_IsbL-0950_RLatLon0.09_PT050H.grib2 2026-05-09 14:55 862K
20260509T12Z_MSC_RDPS_SpecificHumidity_IsbL-0970_RLatLon0.09_PT050H.grib2 2026-05-09 14:55 862K
20260509T12Z_MSC_RDPS_SpecificHumidity_IsbL-0985_RLatLon0.09_PT050H.grib2 2026-05-09 14:55 855K
20260509T12Z_MSC_RDPS_SpecificHumidity_IsbL-1000_RLatLon0.09_PT050H.grib2 2026-05-09 14:55 707K
20260509T12Z_MSC_RDPS_SpecificHumidity_IsbL-1015_RLatLon0.09_PT050H.grib2 2026-05-09 14:55 696K
20260509T12Z_MSC_RDPS_SpecificHumidity_Sfc_RLatLon0.09_PT050H.grib2 2026-05-09 14:55 322K
20260509T12Z_MSC_RDPS_StormRelativeHelicity_EtaL-10000_RLatLon0.09_PT050H.grib2 2026-05-09 14:55 1.2M
20260509T12Z_MSC_RDPS_StormSeverityIndex_EtaL-10000_RLatLon0.09_PT050H.grib2 2026-05-09 14:55 1.1M
20260509T12Z_MSC_RDPS_Thickness_IsbL-0850to0700_RLatLon0.09_PT050H.grib2 2026-05-09 14:55 248K
20260509T12Z_MSC_RDPS_Thickness_IsbL-1000to0500_RLatLon0.09_PT050H.grib2 2026-05-09 14:55 195K
20260509T12Z_MSC_RDPS_Thickness_IsbL-1000to0850_RLatLon0.09_PT050H.grib2 2026-05-09 14:55 264K
20260509T12Z_MSC_RDPS_TotalCloudCover_Sfc_RLatLon0.09_PT050H.grib2 2026-05-09 14:55 680K
20260509T12Z_MSC_RDPS_TotalTotalsIndex_Sfc_RLatLon0.09_PT050H.grib2 2026-05-09 14:55 2.4M
20260509T12Z_MSC_RDPS_UVIndex-ClearSky_Sfc_RLatLon0.09_PT050H.grib2 2026-05-09 14:55 214K
20260509T12Z_MSC_RDPS_UVIndex_Sfc_RLatLon0.09_PT050H.grib2 2026-05-09 14:55 497K
20260509T12Z_MSC_RDPS_UpwardLongwaveRadiationFlux_NTAtm_RLatLon0.09_PT050H.grib2 2026-05-09 14:55 493K
20260509T12Z_MSC_RDPS_UpwardShortwaveRadiationFlux_NTAtm_RLatLon0.09_PT050H.grib2 2026-05-09 14:55 438K
20260509T12Z_MSC_RDPS_VerticalVelocity_IsbL-0250_RLatLon0.09_PT050H.grib2 2026-05-09 14:55 569K
20260509T12Z_MSC_RDPS_VerticalVelocity_IsbL-0500_RLatLon0.09_PT050H.grib2 2026-05-09 14:55 543K
20260509T12Z_MSC_RDPS_VerticalVelocity_IsbL-0700_RLatLon0.09_PT050H.grib2 2026-05-09 14:55 551K
20260509T12Z_MSC_RDPS_VerticalVelocity_IsbL-0850_RLatLon0.09_PT050H.grib2 2026-05-09 14:55 526K
20260509T12Z_MSC_RDPS_VerticalWindShear_EtaL-6500_RLatLon0.09_PT050H.grib2 2026-05-09 14:55 1.2M
20260509T12Z_MSC_RDPS_WindChill_Sfc_RLatLon0.09_PT050H.grib2 2026-05-09 14:55 1.2M
20260509T12Z_MSC_RDPS_WindDir_AGL-10m_RLatLon0.09_PT050H.grib2 2026-05-09 14:55 1.0M
20260509T12Z_MSC_RDPS_WindDir_AGL-120m_RLatLon0.09_PT050H.grib2 2026-05-09 14:55 624K
20260509T12Z_MSC_RDPS_WindDir_AGL-40m_RLatLon0.09_PT050H.grib2 2026-05-09 14:55 650K
20260509T12Z_MSC_RDPS_WindDir_AGL-80m_RLatLon0.09_PT050H.grib2 2026-05-09 14:55 634K
20260509T12Z_MSC_RDPS_WindDir_IsbL-0001_RLatLon0.09_PT050H.grib2 2026-05-09 14:55 273K
20260509T12Z_MSC_RDPS_WindDir_IsbL-0005_RLatLon0.09_PT050H.grib2 2026-05-09 14:55 377K
20260509T12Z_MSC_RDPS_WindDir_IsbL-0010_RLatLon0.09_PT050H.grib2 2026-05-09 14:55 408K
20260509T12Z_MSC_RDPS_WindDir_IsbL-0020_RLatLon0.09_PT050H.grib2 2026-05-09 14:55 454K
20260509T12Z_MSC_RDPS_WindDir_IsbL-0030_RLatLon0.09_PT050H.grib2 2026-05-09 14:55 448K
20260509T12Z_MSC_RDPS_WindDir_IsbL-0050_RLatLon0.09_PT050H.grib2 2026-05-09 14:55 455K
20260509T12Z_MSC_RDPS_WindDir_IsbL-0100_RLatLon0.09_PT050H.grib2 2026-05-09 14:55 439K
20260509T12Z_MSC_RDPS_WindDir_IsbL-0150_RLatLon0.09_PT050H.grib2 2026-05-09 14:55 423K
20260509T12Z_MSC_RDPS_WindDir_IsbL-0175_RLatLon0.09_PT050H.grib2 2026-05-09 14:55 442K
20260509T12Z_MSC_RDPS_WindDir_IsbL-0200_RLatLon0.09_PT050H.grib2 2026-05-09 14:55 456K
20260509T12Z_MSC_RDPS_WindDir_IsbL-0225_RLatLon0.09_PT050H.grib2 2026-05-09 14:55 457K
20260509T12Z_MSC_RDPS_WindDir_IsbL-0250_RLatLon0.09_PT050H.grib2 2026-05-09 14:55 462K
20260509T12Z_MSC_RDPS_WindDir_IsbL-0275_RLatLon0.09_PT050H.grib2 2026-05-09 14:55 488K
20260509T12Z_MSC_RDPS_WindDir_IsbL-0300_RLatLon0.09_PT050H.grib2 2026-05-09 14:55 489K
20260509T12Z_MSC_RDPS_WindDir_IsbL-0350_RLatLon0.09_PT050H.grib2 2026-05-09 14:55 513K
20260509T12Z_MSC_RDPS_WindDir_IsbL-0400_RLatLon0.09_PT050H.grib2 2026-05-09 14:55 544K
20260509T12Z_MSC_RDPS_WindDir_IsbL-0450_RLatLon0.09_PT050H.grib2 2026-05-09 14:55 560K
20260509T12Z_MSC_RDPS_WindDir_IsbL-0500_RLatLon0.09_PT050H.grib2 2026-05-09 14:55 574K
20260509T12Z_MSC_RDPS_WindDir_IsbL-0550_RLatLon0.09_PT050H.grib2 2026-05-09 14:55 589K
20260509T12Z_MSC_RDPS_WindDir_IsbL-0600_RLatLon0.09_PT050H.grib2 2026-05-09 14:55 603K
20260509T12Z_MSC_RDPS_WindDir_IsbL-0650_RLatLon0.09_PT050H.grib2 2026-05-09 14:55 633K
20260509T12Z_MSC_RDPS_WindDir_IsbL-0700_RLatLon0.09_PT050H.grib2 2026-05-09 14:55 666K
20260509T12Z_MSC_RDPS_WindDir_IsbL-0750_RLatLon0.09_PT050H.grib2 2026-05-09 14:55 711K
20260509T12Z_MSC_RDPS_WindDir_IsbL-0800_RLatLon0.09_PT050H.grib2 2026-05-09 14:55 784K
20260509T12Z_MSC_RDPS_WindDir_IsbL-0850_RLatLon0.09_PT050H.grib2 2026-05-09 14:55 855K
20260509T12Z_MSC_RDPS_WindDir_IsbL-0875_RLatLon0.09_PT050H.grib2 2026-05-09 14:55 881K
20260509T12Z_MSC_RDPS_WindDir_IsbL-0900_RLatLon0.09_PT050H.grib2 2026-05-09 14:55 903K
20260509T12Z_MSC_RDPS_WindDir_IsbL-0925_RLatLon0.09_PT050H.grib2 2026-05-09 14:55 920K
20260509T12Z_MSC_RDPS_WindDir_IsbL-0950_RLatLon0.09_PT050H.grib2 2026-05-09 14:55 925K
20260509T12Z_MSC_RDPS_WindDir_IsbL-0970_RLatLon0.09_PT050H.grib2 2026-05-09 14:55 928K
20260509T12Z_MSC_RDPS_WindDir_IsbL-0985_RLatLon0.09_PT050H.grib2 2026-05-09 14:55 940K
20260509T12Z_MSC_RDPS_WindDir_IsbL-1000_RLatLon0.09_PT050H.grib2 2026-05-09 14:55 958K
20260509T12Z_MSC_RDPS_WindDir_IsbL-1015_RLatLon0.09_PT050H.grib2 2026-05-09 14:55 1.0M
20260509T12Z_MSC_RDPS_WindGust-Max_AGL-10m_RLatLon0.09_PT050H.grib2 2026-05-09 14:55 960K
20260509T12Z_MSC_RDPS_WindGust-Min_AGL-10m_RLatLon0.09_PT050H.grib2 2026-05-09 14:55 1.0M
20260509T12Z_MSC_RDPS_WindGust_AGL-10m_RLatLon0.09_PT050H.grib2 2026-05-09 14:55 957K
20260509T12Z_MSC_RDPS_WindSpeed_AGL-10m_RLatLon0.09_PT050H.grib2 2026-05-09 14:55 854K
20260509T12Z_MSC_RDPS_WindSpeed_AGL-120m_RLatLon0.09_PT050H.grib2 2026-05-09 14:55 561K
20260509T12Z_MSC_RDPS_WindSpeed_AGL-40m_RLatLon0.09_PT050H.grib2 2026-05-09 14:55 562K
20260509T12Z_MSC_RDPS_WindSpeed_AGL-80m_RLatLon0.09_PT050H.grib2 2026-05-09 14:55 560K
20260509T12Z_MSC_RDPS_WindSpeed_IsbL-0001_RLatLon0.09_PT050H.grib2 2026-05-09 14:55 256K
20260509T12Z_MSC_RDPS_WindSpeed_IsbL-0005_RLatLon0.09_PT050H.grib2 2026-05-09 14:55 389K
20260509T12Z_MSC_RDPS_WindSpeed_IsbL-0010_RLatLon0.09_PT050H.grib2 2026-05-09 14:55 401K
20260509T12Z_MSC_RDPS_WindSpeed_IsbL-0020_RLatLon0.09_PT050H.grib2 2026-05-09 14:55 327K
20260509T12Z_MSC_RDPS_WindSpeed_IsbL-0030_RLatLon0.09_PT050H.grib2 2026-05-09 14:55 323K
20260509T12Z_MSC_RDPS_WindSpeed_IsbL-0050_RLatLon0.09_PT050H.grib2 2026-05-09 14:55 345K
20260509T12Z_MSC_RDPS_WindSpeed_IsbL-0100_RLatLon0.09_PT050H.grib2 2026-05-09 14:55 471K
20260509T12Z_MSC_RDPS_WindSpeed_IsbL-0150_RLatLon0.09_PT050H.grib2 2026-05-09 14:55 368K
20260509T12Z_MSC_RDPS_WindSpeed_IsbL-0175_RLatLon0.09_PT050H.grib2 2026-05-09 14:55 417K
20260509T12Z_MSC_RDPS_WindSpeed_IsbL-0200_RLatLon0.09_PT050H.grib2 2026-05-09 14:55 433K
20260509T12Z_MSC_RDPS_WindSpeed_IsbL-0225_RLatLon0.09_PT050H.grib2 2026-05-09 14:55 443K
20260509T12Z_MSC_RDPS_WindSpeed_IsbL-0250_RLatLon0.09_PT050H.grib2 2026-05-09 14:55 449K
20260509T12Z_MSC_RDPS_WindSpeed_IsbL-0275_RLatLon0.09_PT050H.grib2 2026-05-09 14:55 470K
20260509T12Z_MSC_RDPS_WindSpeed_IsbL-0300_RLatLon0.09_PT050H.grib2 2026-05-09 14:55 469K
20260509T12Z_MSC_RDPS_WindSpeed_IsbL-0350_RLatLon0.09_PT050H.grib2 2026-05-09 14:55 477K
20260509T12Z_MSC_RDPS_WindSpeed_IsbL-0400_RLatLon0.09_PT050H.grib2 2026-05-09 14:55 465K
20260509T12Z_MSC_RDPS_WindSpeed_IsbL-0450_RLatLon0.09_PT050H.grib2 2026-05-09 14:55 468K
20260509T12Z_MSC_RDPS_WindSpeed_IsbL-0500_RLatLon0.09_PT050H.grib2 2026-05-09 14:55 469K
20260509T12Z_MSC_RDPS_WindSpeed_IsbL-0550_RLatLon0.09_PT050H.grib2 2026-05-09 14:55 469K
20260509T12Z_MSC_RDPS_WindSpeed_IsbL-0600_RLatLon0.09_PT050H.grib2 2026-05-09 14:55 595K
20260509T12Z_MSC_RDPS_WindSpeed_IsbL-0650_RLatLon0.09_PT050H.grib2 2026-05-09 14:55 656K
20260509T12Z_MSC_RDPS_WindSpeed_IsbL-0700_RLatLon0.09_PT050H.grib2 2026-05-09 14:55 634K
20260509T12Z_MSC_RDPS_WindSpeed_IsbL-0750_RLatLon0.09_PT050H.grib2 2026-05-09 14:55 664K
20260509T12Z_MSC_RDPS_WindSpeed_IsbL-0800_RLatLon0.09_PT050H.grib2 2026-05-09 14:55 719K
20260509T12Z_MSC_RDPS_WindSpeed_IsbL-0850_RLatLon0.09_PT050H.grib2 2026-05-09 14:55 776K
20260509T12Z_MSC_RDPS_WindSpeed_IsbL-0875_RLatLon0.09_PT050H.grib2 2026-05-09 14:55 794K
20260509T12Z_MSC_RDPS_WindSpeed_IsbL-0900_RLatLon0.09_PT050H.grib2 2026-05-09 14:55 811K
20260509T12Z_MSC_RDPS_WindSpeed_IsbL-0925_RLatLon0.09_PT050H.grib2 2026-05-09 14:55 871K
20260509T12Z_MSC_RDPS_WindSpeed_IsbL-0950_RLatLon0.09_PT050H.grib2 2026-05-09 14:55 874K
20260509T12Z_MSC_RDPS_WindSpeed_IsbL-0970_RLatLon0.09_PT050H.grib2 2026-05-09 14:55 870K
20260509T12Z_MSC_RDPS_WindSpeed_IsbL-0985_RLatLon0.09_PT050H.grib2 2026-05-09 14:55 863K
20260509T12Z_MSC_RDPS_WindSpeed_IsbL-1000_RLatLon0.09_PT050H.grib2 2026-05-09 14:55 859K
20260509T12Z_MSC_RDPS_WindSpeed_IsbL-1015_RLatLon0.09_PT050H.grib2 2026-05-09 14:55 854K
20260509T12Z_MSC_RDPS_WindU_AGL-10m_RLatLon0.09_PT050H.grib2 2026-05-09 14:55 440K
20260509T12Z_MSC_RDPS_WindU_AGL-120m_RLatLon0.09_PT050H.grib2 2026-05-09 14:55 427K
20260509T12Z_MSC_RDPS_WindU_AGL-40m_RLatLon0.09_PT050H.grib2 2026-05-09 14:55 547K
20260509T12Z_MSC_RDPS_WindU_AGL-80m_RLatLon0.09_PT050H.grib2 2026-05-09 14:55 546K
20260509T12Z_MSC_RDPS_WindU_IsbL-0001_RLatLon0.09_PT050H.grib2 2026-05-09 14:55 295K
20260509T12Z_MSC_RDPS_WindU_IsbL-0005_RLatLon0.09_PT050H.grib2 2026-05-09 14:55 288K
20260509T12Z_MSC_RDPS_WindU_IsbL-0010_RLatLon0.09_PT050H.grib2 2026-05-09 14:55 298K
20260509T12Z_MSC_RDPS_WindU_IsbL-0020_RLatLon0.09_PT050H.grib2 2026-05-09 14:55 356K
20260509T12Z_MSC_RDPS_WindU_IsbL-0030_RLatLon0.09_PT050H.grib2 2026-05-09 14:55 353K
20260509T12Z_MSC_RDPS_WindU_IsbL-0050_RLatLon0.09_PT050H.grib2 2026-05-09 14:55 340K
20260509T12Z_MSC_RDPS_WindU_IsbL-0100_RLatLon0.09_PT050H.grib2 2026-05-09 14:55 426K
20260509T12Z_MSC_RDPS_WindU_IsbL-0150_RLatLon0.09_PT050H.grib2 2026-05-09 14:55 385K
20260509T12Z_MSC_RDPS_WindU_IsbL-0175_RLatLon0.09_PT050H.grib2 2026-05-09 14:55 410K
20260509T12Z_MSC_RDPS_WindU_IsbL-0200_RLatLon0.09_PT050H.grib2 2026-05-09 14:55 425K
20260509T12Z_MSC_RDPS_WindU_IsbL-0225_RLatLon0.09_PT050H.grib2 2026-05-09 14:55 435K
20260509T12Z_MSC_RDPS_WindU_IsbL-0250_RLatLon0.09_PT050H.grib2 2026-05-09 14:55 439K
20260509T12Z_MSC_RDPS_WindU_IsbL-0275_RLatLon0.09_PT050H.grib2 2026-05-09 14:55 357K
20260509T12Z_MSC_RDPS_WindU_IsbL-0300_RLatLon0.09_PT050H.grib2 2026-05-09 14:55 355K
20260509T12Z_MSC_RDPS_WindU_IsbL-0350_RLatLon0.09_PT050H.grib2 2026-05-09 14:55 362K
20260509T12Z_MSC_RDPS_WindU_IsbL-0400_RLatLon0.09_PT050H.grib2 2026-05-09 14:55 471K
20260509T12Z_MSC_RDPS_WindU_IsbL-0450_RLatLon0.09_PT050H.grib2 2026-05-09 14:55 474K
20260509T12Z_MSC_RDPS_WindU_IsbL-0500_RLatLon0.09_PT050H.grib2 2026-05-09 14:55 475K
20260509T12Z_MSC_RDPS_WindU_IsbL-0550_RLatLon0.09_PT050H.grib2 2026-05-09 14:55 457K
20260509T12Z_MSC_RDPS_WindU_IsbL-0600_RLatLon0.09_PT050H.grib2 2026-05-09 14:55 465K
20260509T12Z_MSC_RDPS_WindU_IsbL-0650_RLatLon0.09_PT050H.grib2 2026-05-09 14:55 481K
20260509T12Z_MSC_RDPS_WindU_IsbL-0700_RLatLon0.09_PT050H.grib2 2026-05-09 14:55 502K
20260509T12Z_MSC_RDPS_WindU_IsbL-0750_RLatLon0.09_PT050H.grib2 2026-05-09 14:55 530K
20260509T12Z_MSC_RDPS_WindU_IsbL-0800_RLatLon0.09_PT050H.grib2 2026-05-09 14:55 579K
20260509T12Z_MSC_RDPS_WindU_IsbL-0850_RLatLon0.09_PT050H.grib2 2026-05-09 14:55 629K
20260509T12Z_MSC_RDPS_WindU_IsbL-0875_RLatLon0.09_PT050H.grib2 2026-05-09 14:55 645K
20260509T12Z_MSC_RDPS_WindU_IsbL-0900_RLatLon0.09_PT050H.grib2 2026-05-09 14:55 659K
20260509T12Z_MSC_RDPS_WindU_IsbL-0925_RLatLon0.09_PT050H.grib2 2026-05-09 14:55 669K
20260509T12Z_MSC_RDPS_WindU_IsbL-0950_RLatLon0.09_PT050H.grib2 2026-05-09 14:55 668K
20260509T12Z_MSC_RDPS_WindU_IsbL-0970_RLatLon0.09_PT050H.grib2 2026-05-09 14:55 662K
20260509T12Z_MSC_RDPS_WindU_IsbL-0985_RLatLon0.09_PT050H.grib2 2026-05-09 14:55 799K
20260509T12Z_MSC_RDPS_WindU_IsbL-1000_RLatLon0.09_PT050H.grib2 2026-05-09 14:55 796K
20260509T12Z_MSC_RDPS_WindU_IsbL-1015_RLatLon0.09_PT050H.grib2 2026-05-09 14:55 793K
20260509T12Z_MSC_RDPS_WindV_AGL-10m_RLatLon0.09_PT050H.grib2 2026-05-09 14:55 436K
20260509T12Z_MSC_RDPS_WindV_AGL-120m_RLatLon0.09_PT050H.grib2 2026-05-09 14:55 541K
20260509T12Z_MSC_RDPS_WindV_AGL-40m_RLatLon0.09_PT050H.grib2 2026-05-09 14:55 541K
20260509T12Z_MSC_RDPS_WindV_AGL-80m_RLatLon0.09_PT050H.grib2 2026-05-09 14:55 540K
20260509T12Z_MSC_RDPS_WindV_IsbL-0001_RLatLon0.09_PT050H.grib2 2026-05-09 14:55 249K
20260509T12Z_MSC_RDPS_WindV_IsbL-0005_RLatLon0.09_PT050H.grib2 2026-05-09 14:55 377K
20260509T12Z_MSC_RDPS_WindV_IsbL-0010_RLatLon0.09_PT050H.grib2 2026-05-09 14:55 301K
20260509T12Z_MSC_RDPS_WindV_IsbL-0020_RLatLon0.09_PT050H.grib2 2026-05-09 14:55 320K
20260509T12Z_MSC_RDPS_WindV_IsbL-0030_RLatLon0.09_PT050H.grib2 2026-05-09 14:55 316K
20260509T12Z_MSC_RDPS_WindV_IsbL-0050_RLatLon0.09_PT050H.grib2 2026-05-09 14:55 375K
20260509T12Z_MSC_RDPS_WindV_IsbL-0100_RLatLon0.09_PT050H.grib2 2026-05-09 14:55 422K
20260509T12Z_MSC_RDPS_WindV_IsbL-0150_RLatLon0.09_PT050H.grib2 2026-05-09 14:55 384K
20260509T12Z_MSC_RDPS_WindV_IsbL-0175_RLatLon0.09_PT050H.grib2 2026-05-09 14:55 408K
20260509T12Z_MSC_RDPS_WindV_IsbL-0200_RLatLon0.09_PT050H.grib2 2026-05-09 14:55 328K
20260509T12Z_MSC_RDPS_WindV_IsbL-0225_RLatLon0.09_PT050H.grib2 2026-05-09 14:55 334K
20260509T12Z_MSC_RDPS_WindV_IsbL-0250_RLatLon0.09_PT050H.grib2 2026-05-09 14:55 338K
20260509T12Z_MSC_RDPS_WindV_IsbL-0275_RLatLon0.09_PT050H.grib2 2026-05-09 14:55 355K
20260509T12Z_MSC_RDPS_WindV_IsbL-0300_RLatLon0.09_PT050H.grib2 2026-05-09 14:55 352K
20260509T12Z_MSC_RDPS_WindV_IsbL-0350_RLatLon0.09_PT050H.grib2 2026-05-09 14:55 360K
20260509T12Z_MSC_RDPS_WindV_IsbL-0400_RLatLon0.09_PT050H.grib2 2026-05-09 14:55 365K
20260509T12Z_MSC_RDPS_WindV_IsbL-0450_RLatLon0.09_PT050H.grib2 2026-05-09 14:55 470K
20260509T12Z_MSC_RDPS_WindV_IsbL-0500_RLatLon0.09_PT050H.grib2 2026-05-09 14:55 473K
20260509T12Z_MSC_RDPS_WindV_IsbL-0550_RLatLon0.09_PT050H.grib2 2026-05-09 14:55 471K
20260509T12Z_MSC_RDPS_WindV_IsbL-0600_RLatLon0.09_PT050H.grib2 2026-05-09 14:55 478K
20260509T12Z_MSC_RDPS_WindV_IsbL-0650_RLatLon0.09_PT050H.grib2 2026-05-09 14:55 478K
20260509T12Z_MSC_RDPS_WindV_IsbL-0700_RLatLon0.09_PT050H.grib2 2026-05-09 14:55 498K
20260509T12Z_MSC_RDPS_WindV_IsbL-0750_RLatLon0.09_PT050H.grib2 2026-05-09 14:55 524K
20260509T12Z_MSC_RDPS_WindV_IsbL-0800_RLatLon0.09_PT050H.grib2 2026-05-09 14:55 573K
20260509T12Z_MSC_RDPS_WindV_IsbL-0850_RLatLon0.09_PT050H.grib2 2026-05-09 14:55 623K
20260509T12Z_MSC_RDPS_WindV_IsbL-0875_RLatLon0.09_PT050H.grib2 2026-05-09 14:55 639K
20260509T12Z_MSC_RDPS_WindV_IsbL-0900_RLatLon0.09_PT050H.grib2 2026-05-09 14:55 652K
20260509T12Z_MSC_RDPS_WindV_IsbL-0925_RLatLon0.09_PT050H.grib2 2026-05-09 14:55 662K
20260509T12Z_MSC_RDPS_WindV_IsbL-0950_RLatLon0.09_PT050H.grib2 2026-05-09 14:55 661K
20260509T12Z_MSC_RDPS_WindV_IsbL-0970_RLatLon0.09_PT050H.grib2 2026-05-09 14:55 796K
20260509T12Z_MSC_RDPS_WindV_IsbL-0985_RLatLon0.09_PT050H.grib2 2026-05-09 14:55 794K
20260509T12Z_MSC_RDPS_WindV_IsbL-1000_RLatLon0.09_PT050H.grib2 2026-05-09 14:55 790K
20260509T12Z_MSC_RDPS_WindV_IsbL-1015_RLatLon0.09_PT050H.grib2 2026-05-09 14:55 834K